Tracking 32139 objects as of 16-Nov-2025
HD Live streaming from Space Station
objects crossing your sky now

STARLINK-6229

Track STARLINK-6229 now!
10-day predictions
STARLINK-6229 is classified as:


NORAD ID: 57093
Int'l Code: 2023-088AX
Perigee: 565.5 km
Apogee: 567.0 km
Inclination: 43.0 °
Period: 95.8 minutes
Semi major axis: 6937 km
RCS: Unknown
Launch date: June 22, 2023
Source: United States (US)
Launch site: AIR FORCE WESTERN TEST RANGE (AFWTR)
Your satellite tracking list
Your tracking list is empty




NASA's NSSDC Master Catalog

Two Line Element Set (TLE):
1 57093U 23088AX  25319.82158350  .00007619  00000-0  57862-3 0  9991
2 57093  43.0031 352.9611 0001105 274.9070  85.1646 15.02527895133393
Source of the keplerian elements: AFSPC